Location: Newark
(50.8922°N, 11.6094°E)
Time: 11:22:52
(UTC+00:00)

N. Korean satellite - Pass Details

Date: 01 February 2020
Orbit: 456 x 505 km, 97.2° (Epoch: 19 February)

Event Time Altitude Azimuth Distance (km) Brightness Sun altitude
Rises 16:29:10 0° 182° (S) 2,466 10.5 -4.4°
Reaches altitude 10° 16:31:15 10° 190° (S) 1,601 9.7 -4.8°
Maximum altitude 16:34:31 41° 262° (W) 684 8.1 -5.2°
Drops below altitude 10° 16:37:51 10° 334° (NNW) 1,632 9.3 -5.7°
Sets 16:40:01 0° 342° (NNW) 2,522 10.2 -6.0°
